| time (UTC) | temp F | wind direction | speed MPH | gust MPH | rain 1hr in | rain 24hr in | rain mn in | humidity % | barometer mb |
| 20260507044830 | 70 | 118 | 0.0 | 1.0 | 0.00 | 0.01 | 0.00 | 76 | 1008.1 |
| 20260507044335 | 70 | 119 | 0.0 | 1.0 | 0.00 | 0.01 | 0.00 | 76 | 1008.1 |
| 20260507043849 | 70 | 119 | 0.0 | 0.0 | 0.00 | 0.01 | 0.00 | 76 | 1008.0 |
| 20260507043342 | 70 | 119 | 0.0 | 0.0 | 0.00 | 0.01 | 0.00 | 76 | 1007.9 |
| 20260507042841 | 70 | 119 | 0.0 | 0.0 | 0.00 | 0.01 | 0.00 | 75 | 1007.8 |
| 20260507042334 | 70 | 119 | 0.0 | 0.0 | 0.00 | 0.01 | 0.00 | 75 | 1007.6 |
| 20260507041841 | 70 | 119 | 0.0 | 0.0 | 0.00 | 0.01 | 0.00 | 75 | 1007.5 |
| 20260507041410 | 70 | 119 | 0.0 | 2.0 | 0.00 | 0.01 | 0.00 | 75 | 1007.6 |
| 20260507040854 | 70 | 119 | 0.0 | 2.0 | 0.00 | 0.01 | 0.00 | 75 | 1007.7 |
| 20260507040353 | 70 | 70 | 0.0 | 1.0 | 0.00 | 0.01 | 0.00 | 75 | 1007.7 |
| 20260507035836 | 70 | 69 | 0.0 | 1.0 | 0.00 | 0.01 | 0.01 | 75 | 1007.8 |
| 20260507035336 | 70 | 70 | 0.0 | 1.0 | 0.00 | 0.01 | 0.01 | 75 | 1007.8 |
| 20260507034837 | 70 | 70 | 0.0 | 1.0 | 0.00 | 0.01 | 0.01 | 75 | 1007.8 |
| 20260507034359 | 70 | 70 | 0.0 | 1.0 | 0.00 | 0.01 | 0.01 | 75 | 1007.8 |
| 20260507033843 | 70 | 70 | 0.0 | 2.0 | 0.00 | 0.01 | 0.01 | 75 | 1007.9 |
| 20260507033331 | 70 | 70 | 0.0 | 2.0 | 0.00 | 0.01 | 0.01 | 75 | 1007.7 |
| 20260507032830 | 70 | 24 | 0.0 | 1.0 | 0.00 | 0.01 | 0.01 | 75 | 1007.7 |
| 20260507032328 | 70 | 24 | 0.0 | 1.0 | 0.00 | 0.01 | 0.01 | 75 | 1007.6 |
| 20260507031838 | 70 | 21 | 0.0 | 0.0 | 0.00 | 0.01 | 0.01 | 75 | 1007.5 |
| 20260507031351 | 70 | 22 | 0.0 | 2.0 | 0.00 | 0.01 | 0.01 | 75 | 1007.6 |
| 20260507030859 | 70 | 21 | 0.0 | 3.0 | 0.00 | 0.01 | 0.01 | 75 | 1007.6 |
| 20260507030342 | 70 | 21 | 0.0 | 3.0 | 0.00 | 0.01 | 0.01 | 76 | 1007.6 |
| 20260507025904 | 69 | 44 | 0.0 | 1.0 | 0.00 | 0.01 | 0.01 | 76 | 1007.6 |
| 20260507025344 | 69 | 42 | 0.0 | 1.0 | 0.00 | 0.01 | 0.01 | 77 | 1007.5 |
| 20260507024857 | 69 | 42 | 0.0 | 0.0 | 0.00 | 0.01 | 0.01 | 77 | 1007.5 |
| 20260507024337 | 69 | 42 | 0.0 | 2.0 | 0.00 | 0.01 | 0.01 | 77 | 1007.6 |
| 20260507023837 | 68 | 42 | 0.0 | 2.0 | 0.00 | 0.01 | 0.01 | 77 | 1007.8 |
| 20260507023340 | 68 | 79 | 0.0 | 1.0 | 0.00 | 0.01 | 0.01 | 78 | 1007.9 |
| 20260507022900 | 68 | 79 | 0.0 | 2.0 | 0.00 | 0.01 | 0.01 | 78 | 1007.9 |
| 20260507022340 | 68 | 79 | 0.0 | 2.0 | 0.00 | 0.01 | 0.01 | 78 | 1008.0 |
| 20260507021855 | 68 | 79 | 0.0 | 0.0 | 0.00 | 0.01 | 0.01 | 77 | 1007.9 |
| 20260507021400 | 68 | 79 | 0.0 | 0.0 | 0.00 | 0.01 | 0.01 | 77 | 1008.0 |
| 20260507020859 | 68 | 79 | 0.0 | 0.0 | 0.00 | 0.01 | 0.01 | 77 | 1007.9 |
| 20260507020341 | 68 | 79 | 0.0 | 0.0 | 0.00 | 0.01 | 0.01 | 76 | 1008.0 |
| 20260507015843 | 69 | 79 | 0.0 | 0.0 | 0.00 | 0.01 | 0.01 | 76 | 1008.0 |
| 20260507015405 | 69 | 79 | 0.0 | 0.0 | 0.00 | 0.01 | 0.01 | 75 | 1008.0 |
| 20260507014858 | 69 | 79 | 0.0 | 0.0 | 0.00 | 0.01 | 0.01 | 75 | 1007.9 |
| 20260507014334 | 69 | 79 | 0.0 | 0.0 | 0.00 | 0.01 | 0.01 | 75 | 1008.0 |
| 20260507013828 | 69 | 79 | 0.0 | 0.0 | 0.00 | 0.01 | 0.01 | 74 | 1008.0 |
| 20260507013350 | 70 | 79 | 0.0 | 0.0 | 0.00 | 0.01 | 0.01 | 74 | 1008.1 |
| 20260507012853 | 70 | 79 | 0.0 | 0.0 | 0.00 | 0.01 | 0.01 | 73 | 1008.1 |
| 20260507012348 | 70 | 79 | 0.0 | 0.0 | 0.00 | 0.01 | 0.01 | 73 | 1007.9 |
| 20260507011845 | 70 | 79 | 0.0 | 0.0 | 0.00 | 0.01 | 0.01 | 72 | 1008.0 |
| 20260507011403 | 70 | 79 | 0.0 | 0.0 | 0.00 | 0.01 | 0.01 | 72 | 1007.9 |
| 20260507010825 | 71 | 79 | 0.0 | 2.0 | 0.00 | 0.01 | 0.01 | 71 | 1007.7 |
| 20260507010333 | 71 | 79 | 0.0 | 2.0 | 0.00 | 0.01 | 0.01 | 71 | 1007.7 |
| 20260507005908 | 71 | 79 | 0.0 | 2.0 | 0.00 | 0.01 | 0.01 | 71 | 1007.9 |
| 20260507005349 | 71 | 79 | 0.0 | 2.0 | 0.00 | 0.01 | 0.01 | 70 | 1007.9 |
| 20260507004836 | 71 | 79 | 0.0 | 1.0 | 0.00 | 0.01 | 0.01 | 70 | 1008.0 |
| 20260507004329 | 71 | 79 | 0.0 | 1.0 | 0.00 | 0.01 | 0.01 | 69 | 1007.9 |
| 20260507003829 | 72 | 79 | 0.0 | 1.0 | 0.00 | 0.01 | 0.01 | 69 | 1007.9 |
| 20260507003331 | 72 | 79 | 0.0 | 1.0 | 0.00 | 0.01 | 0.01 | 69 | 1007.9 |
| 20260507002830 | 72 | 79 | 0.0 | 1.0 | 0.00 | 0.01 | 0.01 | 68 | 1008.0 |
| 20260507002329 | 73 | 79 | 0.0 | 2.0 | 0.00 | 0.01 | 0.01 | 68 | 1008.1 |
| 20260507001835 | 73 | 79 | 0.0 | 3.0 | 0.00 | 0.01 | 0.01 | 67 | 1008.0 |
| 20260507001337 | 73 | 79 | 0.0 | 3.0 | 0.00 | 0.01 | 0.01 | 66 | 1007.8 |
| 20260507000838 | 73 | 281 | 0.0 | 2.0 | 0.00 | 0.01 | 0.01 | 66 | 1007.8 |
| 20260507000401 | 73 | 87 | 0.0 | 2.0 | 0.00 | 0.01 | 0.01 | 66 | 1007.7 |
| 20260506235840 | 73 | 88 | 0.0 | 2.0 | 0.00 | 0.01 | 0.01 | 66 | 1007.6 |
| 20260506235334 | 73 | 88 | 1.0 | 3.0 | 0.00 | 0.01 | 0.01 | 65 | 1007.6 |
| 20260506234845 | 74 | 88 | 1.0 | 3.0 | 0.00 | 0.01 | 0.01 | 64 | 1007.6 |
| 20260506234347 | 74 | 67 | 1.0 | 2.0 | 0.00 | 0.01 | 0.01 | 64 | 1007.7 |
| 20260506233855 | 74 | 60 | 0.0 | 2.0 | 0.00 | 0.01 | 0.01 | 64 | 1007.7 |
| 20260506233355 | 74 | 60 | 0.0 | 2.0 | 0.00 | 0.01 | 0.01 | 63 | 1007.6 |
| 20260506232857 | 74 | 76 | 0.0 | 2.0 | 0.00 | 0.01 | 0.01 | 63 | 1007.7 |
| 20260506232337 | 75 | 76 | 0.0 | 3.0 | 0.00 | 0.01 | 0.01 | 63 | 1007.6 |
| 20260506231907 | 75 | 76 | 1.0 | 3.0 | 0.00 | 0.01 | 0.01 | 62 | 1007.5 |
| 20260506231347 | 75 | 17 | 0.0 | 3.0 | 0.00 | 0.01 | 0.01 | 62 | 1007.3 |
| 20260506230919 | 75 | 337 | 1.0 | 3.0 | 0.00 | 0.01 | 0.01 | 61 | 1007.3 |
| 20260506230333 | 75 | 318 | 1.0 | 3.0 | 0.00 | 0.01 | 0.01 | 62 | 1007.3 |
| 20260506225833 | 75 | 77 | 1.0 | 6.0 | 0.00 | 0.01 | 0.01 | 62 | 1007.2 |
| 20260506225354 | 75 | 75 | 0.0 | 3.0 | 0.00 | 0.01 | 0.01 | 62 | 1007.3 |
| 20260506224850 | 75 | 348 | 1.0 | 4.0 | 0.00 | 0.01 | 0.01 | 62 | 1007.3 |
| 20260506224344 | 75 | 355 | 1.0 | 4.0 | 0.00 | 0.01 | 0.01 | 61 | 1007.3 |
| 20260506223840 | 75 | 83 | 1.0 | 4.0 | 0.00 | 0.01 | 0.01 | 61 | 1007.1 |
| 20260506223333 | 75 | 56 | 0.0 | 4.0 | 0.00 | 0.01 | 0.01 | 61 | 1007.2 |
| 20260506222845 | 75 | 60 | 1.0 | 4.0 | 0.00 | 0.01 | 0.01 | 61 | 1007.3 |
| 20260506222347 | 76 | 286 | 0.0 | 3.0 | 0.00 | 0.01 | 0.01 | 61 | 1007.3 |
| 20260506221845 | 76 | 95 | 0.0 | 3.0 | 0.00 | 0.01 | 0.01 | 61 | 1007.4 |
| 20260506221337 | 76 | 77 | 1.0 | 3.0 | 0.00 | 0.01 | 0.01 | 61 | 1007.4 |
| 20260506220837 | 76 | 69 | 0.0 | 2.0 | 0.00 | 0.01 | 0.01 | 61 | 1007.4 |
| 20260506220402 | 76 | 66 | 0.0 | 3.0 | 0.00 | 0.01 | 0.01 | 62 | 1007.6 |
| 20260506215830 | 76 | 256 | 1.0 | 3.0 | 0.00 | 0.01 | 0.01 | 61 | 1007.8 |
| 20260506215333 | 76 | 88 | 1.0 | 2.0 | 0.00 | 0.01 | 0.01 | 60 | 1007.6 |
| 20260506214851 | 76 | 84 | 0.0 | 2.0 | 0.00 | 0.01 | 0.01 | 61 | 1007.7 |
| 20260506214338 | 75 | 83 | 0.0 | 2.0 | 0.00 | 0.01 | 0.01 | 62 | 1007.7 |
| 20260506213834 | 76 | 82 | 0.0 | 2.0 | 0.00 | 0.01 | 0.01 | 61 | 1007.5 |
| 20260506213338 | 76 | 82 | 1.0 | 2.0 | 0.00 | 0.01 | 0.01 | 61 | 1007.3 |
| 20260506212853 | 76 | 87 | 0.0 | 3.0 | 0.00 | 0.01 | 0.01 | 60 | 1007.3 |
| 20260506212355 | 76 | 204 | 0.0 | 3.0 | 0.00 | 0.01 | 0.01 | 61 | 1007.4 |
| 20260506211850 | 76 | 227 | 1.0 | 4.0 | 0.00 | 0.01 | 0.01 | 60 | 1007.6 |
| 20260506211329 | 76 | 220 | 1.0 | 4.0 | 0.01 | 0.01 | 0.01 | 59 | 1007.6 |
| 20260506210828 | 76 | 331 | 1.0 | 4.0 | 0.01 | 0.01 | 0.01 | 59 | 1007.6 |
| 20260506210345 | 76 | 319 | 1.0 | 4.0 | 0.01 | 0.01 | 0.01 | 59 | 1007.5 |
| 20260506205848 | 76 | 23 | 1.0 | 3.0 | 0.01 | 0.01 | 0.01 | 59 | 1007.6 |
| 20260506205332 | 76 | 340 | 1.0 | 4.0 | 0.01 | 0.01 | 0.01 | 59 | 1007.4 |
| 20260506204838 | 76 | 329 | 1.0 | 4.0 | 0.01 | 0.01 | 0.01 | 59 | 1007.4 |
| 20260506204334 | 76 | 49 | 1.0 | 5.0 | 0.01 | 0.01 | 0.01 | 59 | 1007.1 |
| 20260506203838 | 76 | 345 | 2.0 | 5.0 | 0.01 | 0.01 | 0.01 | 59 | 1007.1 |
| 20260506203343 | 76 | 18 | 1.0 | 8.0 | 0.01 | 0.01 | 0.01 | 59 | 1007.0 |
| 20260506202832 | 76 | 184 | 2.0 | 8.0 | 0.01 | 0.01 | 0.01 | 58 | 1007.1 |
| 20260506202344 | 76 | 63 | 1.0 | 4.0 | 0.01 | 0.01 | 0.01 | 59 | 1007.0 |
| 20260506201849 | 76 | 211 | 2.0 | 5.0 | 0.01 | 0.01 | 0.01 | 58 | 1006.9 |
| 20260506201339 | 76 | 111 | 0.0 | 6.0 | 0.00 | 0.00 | 0.00 | 59 | 1006.9 |
| 20260506200838 | 76 | 129 | 2.0 | 6.0 | 0.00 | 0.00 | 0.00 | 58 | 1007.1 |
| 20260506200338 | 76 | 319 | 1.0 | 4.0 | 0.00 | 0.00 | 0.00 | 59 | 1007.4 |
| 20260506195915 | 76 | 73 | 0.0 | 4.0 | 0.00 | 0.00 | 0.00 | 60 | 1007.3 |
| 20260506195348 | 76 | 36 | 1.0 | 5.0 | 0.00 | 0.00 | 0.00 | 59 | 1007.4 |
| 20260506194832 | 75 | 319 | 1.0 | 5.0 | 0.00 | 0.00 | 0.00 | 59 | 1007.3 |
| 20260506194328 | 75 | 108 | 1.0 | 7.0 | 0.00 | 0.00 | 0.00 | 61 | 1007.4 |
| 20260506193916 | 75 | 51 | 2.0 | 7.0 | 0.00 | 0.00 | 0.00 | 59 | 1007.4 |
| 20260506193337 | 75 | 360 | 1.0 | 6.0 | 0.00 | 0.00 | 0.00 | 60 | 1007.6 |
| 20260506192852 | 75 | 329 | 0.0 | 6.0 | 0.00 | 0.00 | 0.00 | 61 | 1007.8 |
| 20260506192401 | 75 | 284 | 1.0 | 6.0 | 0.00 | 0.00 | 0.00 | 59 | 1008.0 |
| 20260506191842 | 75 | 105 | 1.0 | 6.0 | 0.00 | 0.00 | 0.00 | 60 | 1008.1 |
| 20260506191332 | 75 | 211 | 1.0 | 3.0 | 0.00 | 0.00 | 0.00 | 60 | 1008.2 |
| 20260506190854 | 75 | 90 | 0.0 | 2.0 | 0.00 | 0.00 | 0.00 | 60 | 1008.4 |
| 20260506190336 | 75 | 90 | 0.0 | 3.0 | 0.00 | 0.00 | 0.00 | 61 | 1008.6 |
| 20260506185836 | 75 | 90 | 1.0 | 3.0 | 0.00 | 0.00 | 0.00 | 61 | 1008.6 |
| 20260506185348 | 75 | 42 | 1.0 | 3.0 | 0.00 | 0.00 | 0.00 | 61 | 1008.6 |
| 20260506184859 | 74 | 286 | 1.0 | 3.0 | 0.00 | 0.00 | 0.00 | 61 | 1008.7 |
| 20260506184351 | 74 | 239 | 1.0 | 3.0 | 0.00 | 0.00 | 0.00 | 63 | 1008.8 |
| 20260506183829 | 74 | 86 | 0.0 | 3.0 | 0.00 | 0.00 | 0.00 | 62 | 1009.0 |
| 20260506183334 | 74 | 126 | 0.0 | 4.0 | 0.00 | 0.00 | 0.00 | 64 | 1009.0 |
| 20260506182833 | 74 | 125 | 1.0 | 4.0 | 0.00 | 0.00 | 0.00 | 61 | 1009.1 |
| 20260506182329 | 74 | 65 | 0.0 | 6.0 | 0.00 | 0.00 | 0.00 | 62 | 1009.2 |
| 20260506181906 | 74 | 67 | 1.0 | 6.0 | 0.00 | 0.00 | 0.00 | 59 | 1009.2 |
| 20260506181343 | 75 | 71 | 1.0 | 6.0 | 0.00 | 0.00 | 0.00 | 59 | 1009.1 |
| 20260506180846 | 75 | 49 | 1.0 | 5.0 | 0.00 | 0.00 | 0.00 | 60 | 1009.2 |
| 20260506180341 | 75 | 53 | 0.0 | 4.0 | 0.00 | 0.00 | 0.00 | 60 | 1009.2 |
| 20260506175847 | 75 | 159 | 2.0 | 5.0 | 0.00 | 0.00 | 0.00 | 59 | 1009.2 |
| 20260506175342 | 74 | 328 | 2.0 | 5.0 | 0.00 | 0.00 | 0.00 | 62 | 1009.2 |
| 20260506174843 | 74 | 91 | 2.0 | 6.0 | 0.00 | 0.00 | 0.00 | 61 | 1009.2 |
| 20260506174342 | 74 | 85 | 1.0 | 6.0 | 0.00 | 0.00 | 0.00 | 63 | 1009.2 |
| 20260506173829 | 74 | 129 | 1.0 | 6.0 | 0.00 | 0.00 | 0.00 | 62 | 1009.1 |
| 20260506173338 | 73 | 144 | 1.0 | 5.0 | 0.00 | 0.00 | 0.00 | 63 | 1009.2 |
| 20260506172833 | 72 | 22 | 1.0 | 5.0 | 0.00 | 0.00 | 0.00 | 66 | 1009.1 |
| 20260506172347 | 72 | 82 | 1.0 | 6.0 | 0.00 | 0.00 | 0.00 | 67 | 1009.4 |
| 20260506171907 | 72 | 230 | 2.0 | 6.0 | 0.00 | 0.00 | 0.00 | 64 | 1009.3 |
| 20260506171337 | 72 | 319 | 2.0 | 6.0 | 0.00 | 0.00 | 0.00 | 67 | 1009.2 |
| 20260506170832 | 71 | 255 | 1.0 | 5.0 | 0.00 | 0.00 | 0.00 | 67 | 1009.2 |
| 20260506170330 | 71 | 360 | 1.0 | 5.0 | 0.00 | 0.00 | 0.00 | 69 | 1009.4 |
| 20260506165834 | 70 | 318 | 1.0 | 5.0 | 0.00 | 0.00 | 0.00 | 71 | 1009.6 |
| 20260506165336 | 70 | 125 | 1.0 | 5.0 | 0.00 | 0.00 | 0.00 | 70 | 1009.9 |
| 20260506164836 | 69 | 271 | 1.0 | 4.0 | 0.00 | 0.00 | 0.00 | 71 | 1010.2 |
| 20260506164351 | 69 | 338 | 1.0 | 5.0 | 0.00 | 0.00 | 0.00 | 71 | 1010.0 |
| 20260506163833 | 69 | 130 | 1.0 | 5.0 | 0.00 | 0.00 | 0.00 | 72 | 1010.0 |
| 20260506163333 | 69 | 103 | 0.0 | 3.0 | 0.00 | 0.00 | 0.00 | 74 | 1010.0 |
| 20260506162831 | 69 | 104 | 1.0 | 3.0 | 0.00 | 0.00 | 0.00 | 74 | 1010.2 |
| 20260506162404 | 68 | 104 | 0.0 | 5.0 | 0.00 | 0.00 | 0.00 | 76 | 1010.4 |
| 20260506161902 | 68 | 101 | 0.0 | 5.0 | 0.00 | 0.00 | 0.00 | 76 | 1010.4 |
| 20260506161338 | 68 | 86 | 0.0 | 3.0 | 0.00 | 0.00 | 0.00 | 75 | 1010.4 |
| 20260506160828 | 69 | 86 | 0.0 | 5.0 | 0.00 | 0.00 | 0.00 | 74 | 1010.4 |
| 20260506160406 | 69 | 24 | 0.0 | 5.0 | 0.00 | 0.00 | 0.00 | 73 | 1010.5 |
| 20260506155835 | 69 | 56 | 0.0 | 3.0 | 0.00 | 0.00 | 0.00 | 72 | 1010.6 |
| 20260506155419 | 68 | 52 | 0.0 | 2.0 | 0.00 | 0.00 | 0.00 | 75 | 1010.6 |
| 20260506154841 | 68 | 52 | 0.0 | 3.0 | 0.00 | 0.00 | 0.00 | 77 | 1010.6 |
| 20260506154338 | 68 | 49 | 0.0 | 3.0 | 0.00 | 0.00 | 0.00 | 77 | 1010.8 |
| 20260506153842 | 67 | 71 | 0.0 | 2.0 | 0.00 | 0.00 | 0.00 | 77 | 1010.8 |
| 20260506153400 | 67 | 94 | 0.0 | 2.0 | 0.00 | 0.00 | 0.00 | 77 | 1010.9 |
| 20260506152834 | 68 | 96 | 0.0 | 2.0 | 0.00 | 0.00 | 0.00 | 75 | 1010.9 |
| 20260506152334 | 68 | 61 | 1.0 | 2.0 | 0.00 | 0.00 | 0.00 | 75 | 1010.9 |
| 20260506151834 | 68 | 63 | 0.0 | 2.0 | 0.00 | 0.00 | 0.00 | 75 | 1011.0 |
| 20260506151331 | 68 | 62 | 0.0 | 3.0 | 0.00 | 0.00 | 0.00 | 76 | 1011.0 |
| 20260506150906 | 68 | 21 | 1.0 | 5.0 | 0.00 | 0.00 | 0.00 | 74 | 1011.0 |
| 20260506150334 | 69 | 107 | 1.0 | 5.0 | 0.00 | 0.00 | 0.00 | 72 | 1011.0 |
| 20260506145831 | 70 | 69 | 1.0 | 6.0 | 0.00 | 0.00 | 0.00 | 69 | 1011.1 |
| 20260506145351 | 71 | 99 | 1.0 | 6.0 | 0.00 | 0.00 | 0.00 | 67 | 1011.4 |
| 20260506144904 | 71 | 67 | 2.0 | 7.0 | 0.00 | 0.00 | 0.00 | 65 | 1011.4 |
| 20260506144336 | 70 | 178 | 2.0 | 7.0 | 0.00 | 0.00 | 0.00 | 66 | 1011.4 |
| 20260506143829 | 70 | 150 | 2.0 | 6.0 | 0.00 | 0.00 | 0.00 | 67 | 1011.0 |
| 20260506143417 | 70 | 17 | 0.0 | 4.0 | 0.00 | 0.00 | 0.00 | 67 | 1011.0 |
| 20260506142835 | 70 | 16 | 1.0 | 5.0 | 0.00 | 0.00 | 0.00 | 67 | 1010.8 |
| 20260506142337 | 69 | 75 | 1.0 | 5.0 | 0.00 | 0.00 | 0.00 | 68 | 1010.8 |
| 20260506141857 | 69 | 144 | 1.0 | 3.0 | 0.00 | 0.00 | 0.00 | 69 | 1010.7 |
| 20260506141357 | 68 | 42 | 1.0 | 3.0 | 0.00 | 0.00 | 0.00 | 70 | 1010.8 |
| 20260506140833 | 68 | 34 | 0.0 | 2.0 | 0.00 | 0.00 | 0.00 | 71 | 1010.8 |
| 20260506140333 | 68 | 28 | 0.0 | 3.0 | 0.00 | 0.00 | 0.00 | 70 | 1010.8 |
| 20260506135834 | 69 | 28 | 1.0 | 3.0 | 0.00 | 0.00 | 0.00 | 69 | 1010.9 |
| 20260506135410 | 69 | 319 | 0.0 | 5.0 | 0.00 | 0.00 | 0.00 | 68 | 1011.0 |
| 20260506134858 | 69 | 127 | 1.0 | 5.0 | 0.00 | 0.00 | 0.00 | 67 | 1010.7 |
| 20260506134330 | 69 | 5 | 1.0 | 3.0 | 0.00 | 0.00 | 0.00 | 67 | 1010.8 |
| 20260506133854 | 69 | 275 | 1.0 | 6.0 | 0.00 | 0.00 | 0.00 | 66 | 1010.8 |
| 20260506133330 | 69 | 101 | 1.0 | 6.0 | 0.00 | 0.00 | 0.00 | 66 | 1010.8 |
| 20260506132901 | 70 | 340 | 1.0 | 8.0 | 0.00 | 0.00 | 0.00 | 65 | 1010.7 |
| 20260506132343 | 70 | 5 | 2.0 | 8.0 | 0.00 | 0.00 | 0.00 | 65 | 1010.8 |
| 20260506131925 | 70 | 53 | 2.0 | 7.0 | 0.00 | 0.00 | 0.00 | 65 | 1010.6 |
| 20260506131329 | 70 | 42 | 2.0 | 6.0 | 0.00 | 0.00 | 0.00 | 65 | 1010.8 |
| 20260506130838 | 70 | 29 | 1.0 | 6.0 | 0.00 | 0.00 | 0.00 | 65 | 1010.8 |
| 20260506130356 | 70 | 98 | 1.0 | 6.0 | 0.00 | 0.00 | 0.00 | 66 | 1010.9 |
| 20260506125850 | 70 | 42 | 1.0 | 6.0 | 0.00 | 0.00 | 0.00 | 66 | 1010.9 |
| 20260506125352 | 69 | 9 | 1.0 | 5.0 | 0.00 | 0.00 | 0.00 | 66 | 1010.9 |
| 20260506124835 | 69 | 19 | 1.0 | 5.0 | 0.00 | 0.00 | 0.00 | 67 | 1010.9 |
| 20260506124403 | 68 | 58 | 0.0 | 5.0 | 0.00 | 0.00 | 0.00 | 68 | 1010.9 |
| 20260506123855 | 68 | 26 | 1.0 | 5.0 | 0.00 | 0.00 | 0.00 | 67 | 1010.8 |
| 20260506123339 | 68 | 53 | 2.0 | 5.0 | 0.00 | 0.00 | 0.00 | 68 | 1010.7 |
| 20260506122832 | 67 | 143 | 1.0 | 2.0 | 0.00 | 0.00 | 0.00 | 69 | 1010.7 |
| 20260506122342 | 67 | 63 | 0.0 | 7.0 | 0.00 | 0.00 | 0.00 | 69 | 1010.9 |
| 20260506121846 | 67 | 63 | 1.0 | 7.0 | 0.00 | 0.00 | 0.00 | 69 | 1010.9 |
| 20260506121355 | 67 | 105 | 1.0 | 3.0 | 0.00 | 0.00 | 0.00 | 69 | 1011.0 |
| 20260506120841 | 67 | 79 | 1.0 | 4.0 | 0.00 | 0.00 | 0.00 | 69 | 1011.1 |
| 20260506120346 | 66 | 36 | 1.0 | 4.0 | 0.00 | 0.00 | 0.00 | 70 | 1011.1 |
| 20260506115900 | 66 | 98 | 1.0 | 5.0 | 0.00 | 0.00 | 0.00 | 70 | 1011.0 |
| 20260506115330 | 66 | 5 | 0.0 | 4.0 | 0.00 | 0.00 | 0.00 | 70 | 1011.0 |
| 20260506114905 | 66 | 171 | 1.0 | 4.0 | 0.00 | 0.00 | 0.00 | 70 | 1011.0 |
| 20260506114333 | 66 | 80 | 1.0 | 4.0 | 0.00 | 0.00 | 0.00 | 70 | 1011.1 |
| 20260506113851 | 66 | 146 | 0.0 | 5.0 | 0.00 | 0.00 | 0.00 | 70 | 1011.1 |
| 20260506113352 | 66 | 72 | 1.0 | 5.0 | 0.00 | 0.00 | 0.00 | 70 | 1011.1 |
| 20260506112828 | 66 | 178 | 1.0 | 4.0 | 0.00 | 0.00 | 0.00 | 70 | 1011.0 |
| 20260506112328 | 65 | 65 | 2.0 | 6.0 | 0.00 | 0.00 | 0.00 | 70 | 1011.0 |
| 20260506111901 | 65 | 48 | 1.0 | 4.0 | 0.00 | 0.00 | 0.00 | 70 | 1011.0 |
| 20260506111352 | 65 | 5 | 1.0 | 5.0 | 0.00 | 0.00 | 0.00 | 70 | 1011.0 |
| 20260506110833 | 65 | 341 | 1.0 | 4.0 | 0.00 | 0.00 | 0.00 | 70 | 1011.0 |
| 20260506110335 | 65 | 34 | 1.0 | 3.0 | 0.00 | 0.00 | 0.00 | 70 | 1011.1 |
| 20260506105847 | 65 | 63 | 1.0 | 4.0 | 0.00 | 0.00 | 0.00 | 70 | 1011.0 |
| 20260506105400 | 65 | 32 | 0.0 | 7.0 | 0.00 | 0.00 | 0.00 | 70 | 1011.0 |
| 20260506104905 | 65 | 87 | 1.0 | 7.0 | 0.00 | 0.00 | 0.00 | 70 | 1010.9 |
| 20260506104339 | 65 | 5 | 1.0 | 5.0 | 0.00 | 0.00 | 0.00 | 70 | 1010.8 |
| 20260506103834 | 65 | 68 | 1.0 | 5.0 | 0.00 | 0.00 | 0.00 | 70 | 1010.8 |
| 20260506103408 | 64 | 86 | 1.0 | 5.0 | 0.00 | 0.00 | 0.00 | 70 | 1010.8 |
| 20260506102856 | 64 | 126 | 1.0 | 5.0 | 0.00 | 0.00 | 0.00 | 70 | 1010.8 |
| 20260506102329 | 64 | 78 | 1.0 | 5.0 | 0.00 | 0.00 | 0.00 | 70 | 1010.8 |
| 20260506101850 | 64 | 15 | 1.0 | 3.0 | 0.00 | 0.00 | 0.00 | 70 | 1010.8 |
| 20260506101358 | 64 | 53 | 1.0 | 3.0 | 0.00 | 0.00 | 0.00 | 70 | 1010.8 |
| 20260506100900 | 64 | 53 | 0.0 | 2.0 | 0.00 | 0.00 | 0.00 | 70 | 1010.7 |
| 20260506100345 | 64 | 48 | 0.0 | 2.0 | 0.00 | 0.00 | 0.00 | 70 | 1010.6 |
| 20260506095906 | 64 | 88 | 1.0 | 4.0 | 0.00 | 0.00 | 0.00 | 70 | 1010.6 |
| 20260506095329 | 64 | 336 | 0.0 | 4.0 | 0.00 | 0.00 | 0.00 | 70 | 1010.6 |
| 20260506094834 | 64 | 66 | 1.0 | 3.0 | 0.00 | 0.00 | 0.00 | 70 | 1010.6 |
| 20260506094335 | 64 | 76 | 0.0 | 5.0 | 0.00 | 0.00 | 0.00 | 69 | 1010.6 |
| 20260506093841 | 64 | 52 | 1.0 | 5.0 | 0.00 | 0.00 | 0.00 | 70 | 1010.6 |
| 20260506093401 | 64 | 21 | 1.0 | 4.0 | 0.00 | 0.00 | 0.00 | 70 | 1010.7 |
| 20260506092853 | 64 | 74 | 1.0 | 4.0 | 0.00 | 0.00 | 0.00 | 70 | 1010.7 |
| 20260506092354 | 64 | 72 | 1.0 | 4.0 | 0.00 | 0.00 | 0.00 | 69 | 1010.7 |
| 20260506091832 | 64 | 78 | 1.0 | 4.0 | 0.00 | 0.00 | 0.00 | 69 | 1010.7 |
| 20260506091345 | 64 | 71 | 1.0 | 3.0 | 0.00 | 0.00 | 0.00 | 69 | 1010.8 |
| 20260506090830 | 64 | 314 | 1.0 | 5.0 | 0.00 | 0.00 | 0.00 | 69 | 1010.8 |
| 20260506090339 | 64 | 158 | 1.0 | 6.0 | 0.00 | 0.00 | 0.00 | 69 | 1010.8 |
| 20260506085832 | 64 | 207 | 1.0 | 6.0 | 0.00 | 0.00 | 0.00 | 69 | 1010.9 |
| 20260506085334 | 64 | 126 | 1.0 | 5.0 | 0.00 | 0.00 | 0.00 | 68 | 1011.0 |
| 20260506084837 | 65 | 107 | 0.0 | 3.0 | 0.00 | 0.00 | 0.00 | 69 | 1011.0 |
| 20260506084335 | 65 | 145 | 1.0 | 3.0 | 0.00 | 0.00 | 0.00 | 68 | 1011.0 |
| 20260506083902 | 65 | 55 | 1.0 | 4.0 | 0.00 | 0.00 | 0.00 | 68 | 1011.0 |
| 20260506083357 | 65 | 99 | 1.0 | 3.0 | 0.00 | 0.00 | 0.00 | 68 | 1011.1 |
| 20260506082846 | 65 | 151 | 0.0 | 3.0 | 0.00 | 0.00 | 0.00 | 68 | 1011.0 |
| 20260506082348 | 65 | 315 | 1.0 | 5.0 | 0.00 | 0.00 | 0.00 | 68 | 1011.0 |
| 20260506081833 | 65 | 92 | 2.0 | 5.0 | 0.00 | 0.00 | 0.00 | 67 | 1010.9 |
| 20260506081327 | 65 | 41 | 1.0 | 5.0 | 0.00 | 0.00 | 0.00 | 67 | 1010.9 |
| 20260506080855 | 65 | 57 | 1.0 | 3.0 | 0.00 | 0.00 | 0.00 | 67 | 1011.0 |
| 20260506080343 | 65 | 348 | 1.0 | 5.0 | 0.00 | 0.00 | 0.00 | 67 | 1011.0 |
| 20260506073332 | 65 | 18 | 1.0 | 4.0 | 0.00 | 0.00 | 0.00 | 67 | 1011.1 |
| 20260506072850 | 65 | 16 | 1.0 | 7.0 | 0.00 | 0.00 | 0.00 | 67 | 1011.1 |
| 20260506072351 | 65 | 148 | 1.0 | 7.0 | 0.00 | 0.00 | 0.00 | 67 | 1011.1 |
| 20260506071852 | 65 | 63 | 1.0 | 6.0 | 0.00 | 0.00 | 0.00 | 67 | 1011.1 |
| 20260506071346 | 65 | 124 | 1.0 | 3.0 | 0.00 | 0.00 | 0.00 | 67 | 1011.2 |
| 20260506070830 | 65 | 128 | 1.0 | 9.0 | 0.00 | 0.00 | 0.00 | 67 | 1011.2 |
| 20260506070330 | 65 | 85 | 1.0 | 5.0 | 0.00 | 0.00 | 0.00 | 66 | 1011.2 |
| 20260506062339 | 66 | 25 | 1.0 | 5.0 | 0.00 | 0.00 | 0.00 | 66 | 1011.3 |
| 20260506061840 | 66 | 117 | 2.0 | 6.0 | 0.00 | 0.00 | 0.00 | 65 | 1011.3 |
| 20260506061328 | 66 | 97 | 2.0 | 6.0 | 0.00 | 0.00 | 0.00 | 65 | 1011.3 |
| 20260506060837 | 66 | 44 | 1.0 | 5.0 | 0.00 | 0.00 | 0.00 | 65 | 1011.4 |
| 20260506060349 | 66 | 18 | 2.0 | 5.0 | 0.00 | 0.00 | 0.00 | 65 | 1011.4 |
| 20260506051343 | 67 | 43 | 1.0 | 4.0 | 0.00 | 0.00 | 0.00 | 66 | 1011.8 |
| 20260506050920 | 67 | 41 | 1.0 | 4.0 | 0.00 | 0.00 | 0.00 | 66 | 1012.0 |
| 20260506050402 | 67 | 71 | 2.0 | 4.0 | 0.00 | 0.00 | 0.00 | 66 | 1012.0 |